Marion Regional, IL

4:25 AM CDT on April 20, 2018 (GMT -0500)
Williamson County Regional

Weather History for KMWA - September, 2013

Change the Weather History Date:

Friday, September 6, 2013

  Actual Average Record
Temperature  
Mean Temperature 76 °F -  
Max Temperature 89 °F 83 °F 95 °F (1998)
Min Temperature 62 °F 59 °F 33 °F (1996)
Cooling Degree Days 10    
Growing Degree Days 26 (Base 50)    
Moisture  
Dew Point 64 °F    
Average Humidity 75    
Maximum Humidity 100    
Minimum Humidity 33    
Precipitation  
Precipitation 0.00 in - - ()
Sea Level Pressure  
Sea Level Pressure 30.14 in    
Wind  
Wind Speed 2 mph (SSE)    
Max Wind Speed 9 mph    
Max Gust Speed -    
Visibility 10 miles    
Events Fog    
Averages and records for this station are not official NWS values.
T = Trace of Precipitation, MM = Missing Value Source: NWS Daily Summary

Daily Weather History Graph

Daily Weather History Graph

Search for Another Location

Airport or City:

Astronomy

Sep. 06, 2013 Rise Set
Actual Time 6:30 AM CDT 7:17 PM CDT
Civil Twilight 6:03 AM CDT 7:43 PM CDT
Nautical Twilight 5:32 AM CDT 8:15 PM CDT
Astronomical Twilight 4:59 AM CDT 8:47 PM CDT
Moon 7:40 AM CDT (9/6) 7:44 PM CDT (9/6)
Length of Visible Light 13h 39m
Length of Day
12h 46m
New Moon, 2% of the Moon is Illuminated
Sep 6
New Moon
Sep 12
First Quarter
Sep 19
Full
Sep 26
Last Quarter
Oct 4
New

Hourly Weather History & Observations

Time (CDT) Temp. Heat Index Dew Point Humidity Pressure Visibility Wind Dir Wind Speed Gust Speed Precip Events Conditions
12:15 AM 68.0 °F - 64.4 °F 88% 30.19 in 10.0 mi Calm Calm - N/A   Clear
12:35 AM 68.0 °F - 66.2 °F 94% 30.19 in 10.0 mi Calm Calm - N/A   Clear
12:55 AM 68.0 °F - 66.2 °F 94% 30.19 in 7.0 mi Calm Calm - N/A   Clear
1:15 AM 68.0 °F - 66.2 °F 94% 30.19 in 10.0 mi Calm Calm - N/A   Clear
1:35 AM 68.0 °F - 66.2 °F 94% 30.18 in 10.0 mi Calm Calm - N/A   Clear
1:55 AM 68.0 °F - 66.2 °F 94% 30.18 in 7.0 mi Calm Calm - N/A   Clear
2:15 AM 68.0 °F - 66.2 °F 94% 30.18 in 10.0 mi Calm Calm - N/A   Clear
2:35 AM 68.0 °F - 66.2 °F 94% 30.18 in 10.0 mi Calm Calm - N/A   Clear
2:55 AM 68.0 °F - 66.2 °F 94% 30.17 in 7.0 mi Calm Calm - N/A   Clear
3:15 AM 66.2 °F - 66.2 °F 100% 30.18 in 7.0 mi Calm Calm - N/A   Clear
3:35 AM 66.2 °F - 64.4 °F 94% 30.18 in 10.0 mi Calm Calm - N/A   Clear
3:55 AM 66.2 °F - 64.4 °F 94% 30.18 in 7.0 mi Calm Calm - N/A   Clear
4:15 AM 66.2 °F - 66.2 °F 100% 30.17 in 5.0 mi Calm Calm - N/A   Clear
4:35 AM 66.2 °F - 64.4 °F 94% 30.17 in 2.0 mi Calm Calm - N/A   Clear
4:55 AM 64.4 °F - 64.4 °F 100% 30.17 in 0.8 mi Calm Calm - N/A   Mist
5:15 AM 64.4 °F - 64.4 °F 100% 30.17 in 0.5 mi Calm Calm - N/A Fog Fog
5:35 AM 64.4 °F - 64.4 °F 100% 30.17 in 0.2 mi Calm Calm - N/A Fog Fog
5:55 AM 62.6 °F - 62.6 °F 100% 30.17 in 0.5 mi Calm Calm - N/A Fog Fog
6:15 AM 64.4 °F - 64.4 °F 100% 30.18 in 0.2 mi Calm Calm - N/A Fog Fog
6:55 AM 64.4 °F - 64.4 °F 100% 30.18 in 10.0 mi ENE 3.5 mph - N/A   Scattered Clouds
7:55 AM 68.0 °F - 68.0 °F 100% 30.19 in 10.0 mi WSW 3.5 mph - N/A   Scattered Clouds
8:55 AM 75.2 °F - 66.2 °F 73% 30.20 in 10.0 mi East 6.9 mph - N/A   Clear
9:55 AM 78.8 °F - 64.4 °F 61% 30.20 in 15.0 mi SE 9.2 mph - N/A   Partly Cloudy
11:55 AM 84.2 °F 85.0 °F 62.6 °F 48% 30.18 in 15.0 mi SE 3.5 mph - N/A   Partly Cloudy
12:54 PM 86.0 °F 86.1 °F 60.8 °F 43% 30.16 in 15.0 mi SSE 8.1 mph - N/A   Partly Cloudy
1:54 PM 87.8 °F 87.6 °F 60.8 °F 40% 30.14 in 20.0 mi SSW 9.2 mph - N/A   Partly Cloudy
2:53 PM 89.6 °F 88.9 °F 59.0 °F 36% 30.12 in 20.0 mi SSE 8.1 mph - N/A   Clear
3:53 PM 89.6 °F 88.1 °F 57.2 °F 33% 30.10 in 20.0 mi SSE 9.2 mph - N/A   Clear
4:52 PM 89.6 °F 88.9 °F 59.0 °F 36% 30.09 in 20.0 mi SSE 9.2 mph - N/A   Clear
5:53 PM 87.8 °F 87.1 °F 59.0 °F 38% 30.08 in 20.0 mi SSE 9.2 mph - N/A   Clear
6:35 PM 86.0 °F 85.4 °F 59.0 °F 40% 30.09 in 10.0 mi SSE 4.6 mph - N/A   Clear
6:55 PM 84.2 °F 84.4 °F 60.8 °F 45% 30.09 in 10.0 mi SSE 4.6 mph - N/A   Clear
7:15 PM 82.4 °F 83.4 °F 62.6 °F 51% 30.08 in 10.0 mi SSE 4.6 mph - N/A   Clear
7:35 PM 78.8 °F - 62.6 °F 57% 30.08 in 10.0 mi SSE 3.5 mph - N/A   Clear
7:55 PM 77.0 °F - 62.6 °F 61% 30.08 in 10.0 mi Calm Calm - N/A   Clear
8:15 PM 78.8 °F - 62.6 °F 57% 30.09 in 10.0 mi Calm Calm - N/A   Clear
8:35 PM 77.0 °F - 62.6 °F 61% 30.09 in 10.0 mi Calm Calm - N/A   Clear
8:55 PM 77.0 °F - 64.4 °F 65% 30.09 in 10.0 mi Calm Calm - N/A   Clear
9:15 PM 75.2 °F - 64.4 °F 69% 30.09 in 10.0 mi Calm Calm - N/A   Clear
9:35 PM 75.2 °F - 64.4 °F 69% 30.08 in 10.0 mi Calm Calm - N/A   Clear
9:55 PM 73.4 °F - 64.4 °F 73% 30.08 in 10.0 mi South 3.5 mph - N/A   Clear
10:15 PM 73.4 °F - 64.4 °F 73% 30.08 in 10.0 mi Calm Calm - N/A   Clear
10:35 PM 73.4 °F - 64.4 °F 73% 30.08 in 10.0 mi Calm Calm - N/A   Clear
10:55 PM 73.4 °F - 64.4 °F 73% 30.09 in 10.0 mi Calm Calm - N/A   Clear
11:15 PM 73.4 °F - 64.4 °F 73% 30.08 in 10.0 mi SSW 3.5 mph - N/A   Clear
11:35 PM 71.6 °F - 66.2 °F 83% 30.08 in 10.0 mi South 3.5 mph - N/A   Clear
11:55 PM 71.6 °F - 66.2 °F 83% 30.08 in 10.0 mi Calm Calm - N/A   Clear